Flag for South Africa Weather past 2 weeks in Stellenbosch, South Africa

Now
75 °F

Passing clouds.


Feels Like: 78 °F
Forecast: 59 / 79 °F
Wind: 3 mph from Southwest

Location: Cape Town International Airport


UV Index: 3 (Moderate)

Visibility: N/A


Pressure: 29.95 "Hg

Humidity: 47%

Dew point: 54 °F

Location of StellenboschLocation

Historic Weather in Stellenbosch

°F

Stellenbosch temperature yesterday

Maximum temperature yesterday: 75 °F (at 1:00 PM)
Minimum temperature yesterday: 50 °F (at 6:00 AM)
Average temperature yesterday: 64 °F

Past Weeks' High & Low Weather Summary

 TemperatureHumidityPressure
High97 °F (Apr 11, 1:00 PM)94% (Apr 3, 4:00 AM)30.24 "Hg (Apr 3, 4:00 AM)
Low50 °F (Apr 16, 6:00 AM)22% (Apr 12, 1:00 PM)29.80 "Hg (Apr 2, 9:00 AM)
Average69 °F63%30.08 "Hg
* Reported Apr 2 9:00 AM — Apr 17 9:00 AM, Stellenbosch, Weather by CustomWeather, © 2014

Note: Actual official high and low records may vary slightly from our data, if they occured in-between our weather recording intervals... More about our weather records

Advertising

Historic Weather Conditions — Data for Previous 24 hours

 ConditionsComfort  
Time TempWeatherWind HumidityBarometerVisibility
9:00 AM
Apr 17
66 °FSunny.3 mph64%29.95 "Hg10 mi
8:00 AM55 °FSunny.3 mph82%29.95 "Hg10 mi
7:00 AM52 °FSunny.2 mph88%29.95 "Hg10 mi
6:00 AM54 °FClear.2 mph88%29.95 "Hg10 mi
5:00 AM54 °FClear.5 mph88%29.95 "Hg10 mi
4:00 AM52 °FClear.2 mph82%29.98 "Hg10 mi
3:00 AM55 °FClear.No wind88%30.01 "Hg10 mi
2:00 AM55 °FClear.No wind88%30.01 "Hg10 mi
1:00 AM57 °FClear.2 mph88%30.04 "Hg10 mi
12:00 AM59 °FPassing clouds.3 mph77%30.04 "HgN/A
11:00 PM
Apr 16
61 °FClear.2 mph77%30.07 "Hg10 mi
10:00 PM63 °FClear.8 mph77%30.07 "Hg10 mi
9:00 PM63 °FClear.10 mph77%30.07 "Hg10 mi
8:00 PM64 °FClear.12 mph73%30.07 "Hg10 mi
7:00 PM64 °FClear.14 mph78%30.07 "Hg10 mi
6:00 PM68 °FClear.10 mph69%30.07 "Hg10 mi
5:00 PM72 °FSunny.13 mph61%30.09 "Hg10 mi
4:00 PM75 °FSunny.10 mph50%30.09 "Hg10 mi
3:00 PM75 °FSunny.10 mph44%30.09 "Hg10 mi
2:00 PM75 °FPassing clouds.10 mph41%30.12 "HgN/A
1:00 PM75 °FSunny.9 mph39%30.15 "Hg10 mi
12:00 PM73 °FPassing clouds.7 mph41%30.15 "HgN/A
11:00 AM72 °FPassing clouds.9 mph47%30.15 "HgN/A
10:00 AM68 °FPassing clouds.6 mph53%30.15 "HgN/A
Weather by CustomWeather, © 2014

See weather overview